DW8102 Weather Reports


Display with metric or nautical units.
time (UTC)temp
F
wind
direction
speed
MPH
gust
MPH
rain 1hr
in
rain 24hr
in
rain mn
in
humidity
%
barometer
mb
20260503013002 50 341 0.0 0.0 0.05 0.10 0.10 92 1008.2
20260503011609 50 341 0.0 0.0 0.04 0.08 0.08 91 1008.2
20260503010105 50 341 0.0 0.0 0.05 0.06 0.06 90 1007.9
20260503003103 51 34 0.0 0.0 0.06 0.06 0.06 88 1007.9
20260503001602 52 329 0.0 0.0 0.05 0.05 0.05 85 1008.7
20260503000052 53 315 0.0 1.0 0.02 0.02 0.02 80 1008.9
20260502233042 57 311 3.0 9.0 0.00 0.00 0.00 65 1008.6
20260502231543 58 316 2.0 6.0 0.00 0.00 0.00 57 1008.3
20260502230039 58 307 0.0 0.0 0.00 0.00 0.00 62 1007.9
20260502223033 60 250 0.0 2.0 0.00 0.00 0.00 55 1007.7
20260502221529 61 271 0.0 0.0 0.00 0.00 0.00 51 1007.6
20260502220032 61 253 0.0 3.0 0.00 0.00 0.00 50 1007.6
20260502213031 62 224 0.0 4.0 0.00 0.00 0.00 47 1007.7
20260502211524 62 204 0.0 5.0 0.00 0.00 0.00 47 1007.7
20260502210024 63 203 0.0 4.0 0.00 0.00 0.00 47 1007.8
20260502203021 63 226 0.0 6.0 0.00 0.00 0.00 48 1007.9
20260502201531 64 299 0.0 7.0 0.00 0.00 0.00 48 1007.9
20260502200018 64 215 1.0 6.0 0.00 0.00 0.00 49 1007.9
20260502193017 65 238 2.0 10.0 0.00 0.00 0.00 47 1007.8
20260502191518 65 153 0.0 12.0 0.00 0.00 0.00 45 1007.9
20260502190015 65 229 3.0 11.0 0.00 0.00 0.00 43 1007.8
20260502183010 66 210 5.0 10.0 0.00 0.00 0.00 41 1007.5
20260502181505 67 282 3.0 13.0 0.00 0.00 0.00 40 1007.5
20260502163108 70 262 2.0 10.0 0.00 0.00 0.00 38 1007.3
20260502161554 70 260 2.0 8.0 0.00 0.00 0.00 40 1007.5
20260502151543 69 276 5.0 11.0 0.00 0.00 0.00 39 1008.4
20260502123016 71 241 6.0 18.0 0.00 0.00 0.00 41 1010.2
20260502121514 71 200 5.0 19.0 0.00 0.00 0.00 42 1010.6
20260502114611 70 8 8.0 26.0 0.00 0.00 0.00 40 1010.8
20260502113011 70 200 6.0 16.0 0.00 0.00 0.00 41 1011.1
20260502111508 69 210 5.0 13.0 0.00 0.00 0.00 42 1011.2
20260502110008 69 219 4.0 12.0 0.00 0.00 0.00 42 1011.4
20260502104605 68 269 1.0 12.0 0.00 0.00 0.00 44 1011.8
20260502103004 67 302 3.0 11.0 0.00 0.00 0.00 44 1012.0
20260502101502 67 322 5.0 15.0 0.00 0.00 0.00 44 1012.2
20260502091502 65 239 6.0 20.0 0.00 0.00 0.00 44 1012.8
20260502070053 60 208 5.0 11.0 0.00 0.00 0.00 46 1014.1
20260502064548 59 156 5.0 12.0 0.00 0.00 0.00 47 1014.3
20260502063044 58 231 2.0 10.0 0.00 0.00 0.00 49 1014.3
20260502061544 57 282 3.0 13.0 0.00 0.00 0.00 49 1014.4
20260502060045 57 206 2.0 10.0 0.00 0.00 0.00 51 1014.6
20260502054541 56 198 5.0 12.0 0.00 0.00 0.00 52 1014.6
20260502053043 55 228 3.0 11.0 0.00 0.00 0.00 54 1014.6
20260502051539 55 226 3.0 11.0 0.00 0.00 0.00 54 1014.7
20260502050040 54 232 5.0 13.0 0.00 0.00 0.00 55 1014.7
20260502044544 54 239 5.0 13.0 0.00 0.00 0.00 56 1014.7
20260502043044 54 214 4.0 13.0 0.00 0.00 0.00 56 1014.7
20260502041545 53 268 4.0 10.0 0.00 0.00 0.00 58 1014.7
20260502040036 53 197 5.0 12.0 0.00 0.00 0.00 58 1014.8
20260502034538 53 225 5.0 14.0 0.00 0.00 0.00 59 1014.9
20260502033033 53 228 4.0 10.0 0.00 0.00 0.00 59 1015.0
20260502031532 53 200 8.0 15.0 0.00 0.00 0.00 59 1015.0
20260502030030 53 243 5.0 14.0 0.00 0.00 0.00 60 1015.1
20260502024528 53 290 5.0 14.0 0.00 0.00 0.00 60 1015.3
20260502023026 53 275 6.0 14.0 0.00 0.00 0.00 60 1015.3
20260502021525 53 277 4.0 12.0 0.00 0.00 0.00 60 1015.5
20260502020022 53 198 5.0 12.0 0.00 0.00 0.00 60 1015.6